SCP
0 0 -0 -0 -0 -0 0 0 0 0 0 0 -0 -0 -0 -0 -0 -0 -0 -0 -0 0 0 0 0 0 0 0 0 0 0 0
0 0 0 0 -0 0 0 0 0 0 0 -0 0 -0 -0 -0 0 0 0 0 0 0 0 0 0 0 0 0 0 -0 -0 -0
0 0 -0 0 -0 0 -0 -0 0 0 0 0 -0 0 -0 -0 0 0 0 0 0 0 0 0 0 0 0 0 -0 -0 -0 -0
0 0 -0 -0 -0 0 -0 -0 0 0 -0 0 -0 -0 0 0 0 0 0 0 0 0 0 0 -0 -0 -0 0 0 -0 -0 -0
0 0 -0 0 0 0 -0 -0 0 0 0 -0 -0 -0 -0 -0 -0 0 0 0 0 0 0 -0 -0 -0 -0 -0 0 -0 -0 -0
0 0 0 -0 -0 0 -0 -0 -0 0 -0 0 -0 -0 -0 -0 -0 -0 0 0 0 0 0 0 -0 -0 0 0 -0 -0 -0 -0
0 -0 0 0 -0 -0 -0 0 -0 -0 -0 -0 -0 -0 -0 -0 -0 -0 -0 -0 -0 -0 -0 -0 -0 -0 -0 -0 -0 -0 -0 -0
-0 0 -0 0 -0 0 -0 -0 -0 0 0 -0 -0 -0 -0 0 0 -0 -0 -0 -0 -0 -0 -0 -0 -0 -0 -0 -0 -0 -0 -0
-0 0 -0 -0 0 -0 0 0 0 -0 0 0 0 0 -0 0 0 0 -0 -0 -0 -0 -0 -0 -0 -0 -0 -0 -0 -0 -0 0
-0 -0 0 0 0 0 0 0 0 0 0 0 0 0 0 -0 -0 0 0 0 -0 -0 -0 -0 -0 0 0 0 0 0 0 0
0 0 0 0 0 0 0 0 0 0 0 0 0 0 0 0 0 0 -0 -0 0 0 -0 -0 -0 0 0 0 0 0 0 0
-0 -0 0 0 0 0 0 0 0 0 0 0 -0 -0 -0 -0 -0 -0 -0 -0 0 0 -0 0 0 0 0 0 0 0 0 0
-0 -0 -0 0 0 0 0 0 0 0 0 -0 -0 -0 0 0 -0 -0 -0 0 0 0 0 0 0 0 0 0 0 0 0 0
-0 -0 0 0 0 -0 -0 -0 -0 0 0 0 0 0 0 0 0 -0 -0 0 0 0 0 -0 -0 0 0 0 0 0 0 0
0 0 0 0 0 -0 0 -0 0 0 0 0 0 0 0 0 0 0 0 0 0 1 0 0 0 0 0 0 0 0 0 0
0 0 0 0 -0 0 0 0 0 -0 0 0 -0 0 0 0 0 0 0 0 1 0 0 0 0 0 0 0 0 0 0 0
0 0 0 -0 0 -0 0 0 0 0 1 0 0 1 0 0 0 0 0 0 1 1 0 0 0 0 0 0 0 0 0 0
0 0 0 0 -0 0 0 0 0 0 0 -1 -0 0 0 0 0 0 0 0 0 0 0 0 0 0 0 0 0 0 0 0
0 0 0 0 0 0 0 0 1 1 0 -1 -2 -0 0 0 0 0 0 0 0 0 0 0 0 0 0 0 0 0 0 0
0 0 0 0 0 0 0 0 0 0 0 -0 -1 -0 0 0 0 0 0 0 0 0 0 0 0 0 0 0 0 0 0 0
Wind_Speed_500mb
8 7 7 3 6 9 26 35 3 16 20 12 11 34 49 41 48 42 39 36 32 27 24 24 24 24 24 23 23 24 25 25
8 2 5 13 9 4 16 23 23 24 14 18 11 36 39 47 43 38 36 32 28 28 28 27 26 25 23 23 24 25 26 26
5 5 7 8 12 13 10 5 30 18 10 19 20 35 47 44 40 37 38 36 34 33 31 28 26 25 24 24 25 25 26 28
1 4 8 7 23 15 10 11 44 39 24 11 39 45 44 41 41 37 37 36 33 31 28 27 25 24 23 23 24 25 27 29
6 6 8 3 23 11 12 3 10 23 12 27 47 44 44 40 37 35 33 32 31 29 28 26 24 23 22 22 23 24 21 23
8 12 10 4 8 21 18 4 46 32 12 20 53 45 44 41 36 33 30 29 30 29 28 25 24 23 23 21 22 22 20 22
15 17 10 11 10 14 17 39 21 10 46 63 58 49 47 46 41 38 36 33 34 31 31 26 27 26 27 25 22 20 19 16
16 21 19 38 32 31 23 20 7 43 53 60 60 56 51 49 48 45 41 38 35 31 28 27 26 20 18 18 19 19 18 15
16 40 72 40 27 29 30 7 34 61 63 63 63 58 49 45 42 40 41 39 35 30 24 23 18 14 10 9 11 12 10 8
16 35 35 23 28 15 23 14 47 65 60 64 68 62 53 46 43 43 41 35 30 29 22 22 14 9 10 10 11 12 10 9
29 27 27 25 14 8 6 27 54 66 57 64 68 65 58 51 43 39 39 36 29 28 22 26 17 12 16 11 11 14 13 13
16 7 5 15 2 3 30 48 65 57 61 57 62 64 59 51 47 42 37 40 32 30 27 24 20 16 16 15 12 13 13 14
6 1 2 17 9 10 37 42 59 47 49 47 47 52 62 55 52 49 41 43 33 26 21 23 24 25 22 17 17 14 13 12
7 3 5 4 18 16 44 51 48 36 44 44 38 43 52 58 55 55 52 47 40 33 30 28 28 26 23 19 16 16 15 16
4 15 2 7 12 19 47 58 39 49 58 55 51 51 55 60 63 59 52 47 44 40 34 29 27 26 23 22 19 17 14 19
15 21 15 11 20 11 33 49 48 55 63 60 59 57 55 55 53 50 44 39 38 35 28 23 21 23 24 13 7 6 13 13
10 18 22 41 12 26 34 35 39 48 60 61 58 55 53 53 51 50 46 39 35 32 27 22 21 22 15 15 9 3 7 13
18 12 14 20 35 19 30 45 67 63 63 69 60 56 51 47 46 44 39 36 32 30 26 21 22 22 21 15 8 6 14 16
15 10 8 17 10 9 15 24 37 46 65 74 77 67 54 49 46 42 37 36 35 33 32 32 30 28 24 17 11 10 19 21
8 7 8 5 8 11 21 28 28 50 61 76 77 65 60 56 50 41 37 33 32 33 34 33 31 25 16 12 9 15 16 17
Wind_Direction_500mb
97 122 118 196 271 161 153 157 203 123 80 92 106 127 141 147 150 154 147 148 152 152 144 135 127 119 114 108 101 96 93 91
75 301 264 159 199 174 129 93 110 91 60 96 125 140 147 144 149 148 143 143 143 138 134 130 124 117 108 101 95 91 88 86
66 267 339 324 144 118 346 35 116 101 93 106 150 144 143 143 145 142 138 140 139 135 132 127 121 114 108 102 97 92 89 86
219 10 358 24 111 143 56 92 100 101 98 80 134 138 138 138 138 141 140 141 139 135 130 125 118 110 104 98 93 89 87 84
129 130 27 110 131 66 95 198 89 125 88 138 146 137 133 137 141 145 147 142 138 133 127 121 115 108 101 96 91 88 92 80
216 170 171 66 53 118 198 40 125 114 154 171 156 145 141 144 148 151 147 143 135 127 120 116 112 106 101 96 95 89 86 70
180 155 166 149 150 190 184 165 188 166 161 153 152 155 154 155 160 158 155 149 141 128 120 111 121 103 104 101 101 85 86 74
186 163 166 168 184 160 151 174 178 115 144 154 160 164 162 163 162 161 156 152 150 139 125 114 115 108 106 106 100 94 82 79
200 168 165 168 177 176 163 188 173 147 156 167 171 176 174 174 171 162 159 159 155 153 140 135 127 118 121 126 109 106 107 100
164 163 161 164 152 121 183 200 174 163 164 176 180 185 186 183 184 175 175 167 168 168 162 163 157 150 171 174 181 170 190 205
155 166 155 145 87 84 121 143 164 160 171 185 189 194 197 195 191 185 186 181 183 181 169 172 165 171 175 192 200 217 234 248
153 150 134 130 59 50 160 152 164 167 181 190 198 201 207 211 204 192 193 195 188 180 168 173 180 199 211 231 244 258 257 264
336 125 252 130 335 250 172 166 170 179 188 192 201 207 220 220 213 198 191 187 188 178 177 198 211 223 234 240 248 264 274 274
240 305 252 21 241 219 181 179 174 174 170 163 168 185 199 203 203 186 185 182 179 187 190 202 212 220 219 215 219 238 251 271
16 208 269 184 238 230 184 187 174 172 164 155 151 155 158 167 172 176 181 183 190 198 202 208 210 214 214 224 229 247 269 303
176 212 229 212 263 258 194 189 184 172 171 169 166 167 172 175 179 186 191 195 193 197 209 208 209 220 226 231 247 326 344 355
249 200 164 218 238 222 184 190 183 177 174 180 179 180 186 192 194 195 201 207 213 214 212 217 216 216 222 243 272 333 43 37
287 144 152 175 228 229 186 199 191 183 184 188 186 187 194 203 209 213 215 213 208 209 210 201 216 223 225 252 195 112 79 77
220 147 68 119 339 198 231 212 206 202 201 196 197 195 199 203 204 206 211 214 213 210 214 205 212 227 230 216 172 120 110 88
243 121 183 148 231 244 216 215 204 205 208 200 200 201 204 204 205 208 211 210 205 201 201 208 217 223 222 186 161 129 110 95
Wind_Speed_850mb
8 7 7 3 6 9 26 35 3 16 20 12 11 34 49 41 48 42 39 36 32 27 24 24 24 24 24 23 23 24 25 25
8 2 5 13 9 4 16 23 23 24 14 18 11 36 39 47 43 38 36 32 28 28 28 27 26 25 23 23 24 25 26 26
5 5 7 8 12 13 10 5 30 18 10 19 20 35 47 44 40 37 38 36 34 33 31 28 26 25 24 24 25 25 26 28
1 4 8 7 23 15 10 11 44 39 24 11 39 45 44 41 41 37 37 36 33 31 28 27 25 24 23 23 24 25 27 29
6 6 8 3 23 11 12 3 10 23 12 27 47 44 44 40 37 35 33 32 31 29 28 26 24 23 22 22 23 24 21 23
8 12 10 4 8 21 18 4 46 32 12 20 53 45 44 41 36 33 30 29 30 29 28 25 24 23 23 21 22 22 20 22
15 17 10 11 10 14 17 39 21 10 46 63 58 49 47 46 41 38 36 33 34 31 31 26 27 26 27 25 22 20 19 16
16 21 19 38 32 31 23 20 7 43 53 60 60 56 51 49 48 45 41 38 35 31 28 27 26 20 18 18 19 19 18 15
16 40 72 40 27 29 30 7 34 61 63 63 63 58 49 45 42 40 41 39 35 30 24 23 18 14 10 9 11 12 10 8
16 35 35 23 28 15 23 14 47 65 60 64 68 62 53 46 43 43 41 35 30 29 22 22 14 9 10 10 11 12 10 9
29 27 27 25 14 8 6 27 54 66 57 64 68 65 58 51 43 39 39 36 29 28 22 26 17 12 16 11 11 14 13 13
16 7 5 15 2 3 30 48 65 57 61 57 62 64 59 51 47 42 37 40 32 30 27 24 20 16 16 15 12 13 13 14
6 1 2 17 9 10 37 42 59 47 49 47 47 52 62 55 52 49 41 43 33 26 21 23 24 25 22 17 17 14 13 12
7 3 5 4 18 16 44 51 48 36 44 44 38 43 52 58 55 55 52 47 40 33 30 28 28 26 23 19 16 16 15 16
4 15 2 7 12 19 47 58 39 49 58 55 51 51 55 60 63 59 52 47 44 40 34 29 27 26 23 22 19 17 14 19
15 21 15 11 20 11 33 49 48 55 63 60 59 57 55 55 53 50 44 39 38 35 28 23 21 23 24 13 7 6 13 13
10 18 22 41 12 26 34 35 39 48 60 61 58 55 53 53 51 50 46 39 35 32 27 22 21 22 15 15 9 3 7 13
18 12 14 20 35 19 30 45 67 63 63 69 60 56 51 47 46 44 39 36 32 30 26 21 22 22 21 15 8 6 14 16
15 10 8 17 10 9 15 24 37 46 65 74 77 67 54 49 46 42 37 36 35 33 32 32 30 28 24 17 11 10 19 21
8 7 8 5 8 11 21 28 28 50 61 76 77 65 60 56 50 41 37 33 32 33 34 33 31 25 16 12 9 15 16 17
Wind_Direction_850mb
97 122 118 196 271 161 153 157 203 123 80 92 106 127 141 147 150 154 147 148 152 152 144 135 127 119 114 108 101 96 93 91
75 301 264 159 199 174 129 93 110 91 60 96 125 140 147 144 149 148 143 143 143 138 134 130 124 117 108 101 95 91 88 86
66 267 339 324 144 118 346 35 116 101 93 106 150 144 143 143 145 142 138 140 139 135 132 127 121 114 108 102 97 92 89 86
219 10 358 24 111 143 56 92 100 101 98 80 134 138 138 138 138 141 140 141 139 135 130 125 118 110 104 98 93 89 87 84
129 130 27 110 131 66 95 198 89 125 88 138 146 137 133 137 141 145 147 142 138 133 127 121 115 108 101 96 91 88 92 80
216 170 171 66 53 118 198 40 125 114 154 171 156 145 141 144 148 151 147 143 135 127 120 116 112 106 101 96 95 89 86 70
180 155 166 149 150 190 184 165 188 166 161 153 152 155 154 155 160 158 155 149 141 128 120 111 121 103 104 101 101 85 86 74
186 163 166 168 184 160 151 174 178 115 144 154 160 164 162 163 162 161 156 152 150 139 125 114 115 108 106 106 100 94 82 79
200 168 165 168 177 176 163 188 173 147 156 167 171 176 174 174 171 162 159 159 155 153 140 135 127 118 121 126 109 106 107 100
164 163 161 164 152 121 183 200 174 163 164 176 180 185 186 183 184 175 175 167 168 168 162 163 157 150 171 174 181 170 190 205
155 166 155 145 87 84 121 143 164 160 171 185 189 194 197 195 191 185 186 181 183 181 169 172 165 171 175 192 200 217 234 248
153 150 134 130 59 50 160 152 164 167 181 190 198 201 207 211 204 192 193 195 188 180 168 173 180 199 211 231 244 258 257 264
336 125 252 130 335 250 172 166 170 179 188 192 201 207 220 220 213 198 191 187 188 178 177 198 211 223 234 240 248 264 274 274
240 305 252 21 241 219 181 179 174 174 170 163 168 185 199 203 203 186 185 182 179 187 190 202 212 220 219 215 219 238 251 271
16 208 269 184 238 230 184 187 174 172 164 155 151 155 158 167 172 176 181 183 190 198 202 208 210 214 214 224 229 247 269 303
176 212 229 212 263 258 194 189 184 172 171 169 166 167 172 175 179 186 191 195 193 197 209 208 209 220 226 231 247 326 344 355
249 200 164 218 238 222 184 190 183 177 174 180 179 180 186 192 194 195 201 207 213 214 212 217 216 216 222 243 272 333 43 37
287 144 152 175 228 229 186 199 191 183 184 188 186 187 194 203 209 213 215 213 208 209 210 201 216 223 225 252 195 112 79 77
220 147 68 119 339 198 231 212 206 202 201 196 197 195 199 203 204 206 211 214 213 210 214 205 212 227 230 216 172 120 110 88
243 121 183 148 231 244 216 215 204 205 208 200 200 201 204 204 205 208 211 210 205 201 201 208 217 223 222 186 161 129 110 95